This demonstration page uses our WeatherBlox Daily Observations layout. Learn more.

Left ArrowRight Arrow

Hourly Observations for January 28, 2018

Temp ( °F °C ) Dew Point ( °F °C ) Humidity (%) Winds ( mph kmh ) Pressure ( in mb ) Visibility ( mi km ) Precip ( " mm )
12:53 am 00:53 Mostly Cloudy 30 -1.1 21 -6.1 69 69 WSW 6 9 30.32 1027 10 16 0.00 0.00
1:53 am 01:53 Clear 27 -2.8 22 -5.6 81 81 NNE 8 13 30.37 1028 10 16 0.00 0.00
2:53 am 02:53 Partly Cloudy 26 -3.3 22 -5.6 84 84 N 8 13 30.38 1029 10 16 0.00 0.00
3:20 am 03:20 Mostly Cloudy 25 -4 21 -6 86 86 NNE 9 15 30.45 1031 10 16 0.00 0.00
3:29 am 03:29 Cloudy 26 -3.3 23 -5 88 88 NNE 12 19 30.45 1031 10 16 0.00 0.00
3:53 am 03:53 Cloudy 26 -3.3 22 -5.6 84 84 NE 15 24 30.38 1029 10 16 0.00 0.00
4:10 am 04:10 Partly Cloudy 25 -4 19 -7 80 80 NE 14 22 30.45 1031 8 13 0.00 0.00
4:32 am 04:32 Mostly Cloudy 25 -4 19 -7 80 80 NNE 13 20 30.45 1031 8 13 0.00 0.00
4:53 am 04:53 Cloudy 24 -4.4 20 -6.7 84 84 NE 15 24 30.39 1029 8 13 0.00 0.00
5:53 am 05:53 Cloudy 23 -5 19 -7.2 85 85 NE 12 19 30.42 1030 10 16 0.00 0.00
6:12 am 06:12 Cloudy 21 -6 18 -8 86 86 NNE 14 22 30.50 1033 10 16 0.00 0.00
6:53 am 06:53 Cloudy 20 -6.7 16 -8.9 85 85 NE 14 22 30.45 1031 10 16 0.00 0.00
7:53 am 07:53 Cloudy 19 -7.2 14 -10 81 81 NE 16 26 30.47 1032 10 16 0.00 0.00
8:53 am 08:53 Cloudy 18 -7.8 12 -11.1 77 77 NE 17 28 30.45 1031 10 16 0.00 0.00
9:53 am 09:53 Mostly Cloudy 20 -6.7 11 -11.7 68 68 NNE 15 24 30.49 1033 10 16 0.00 0.00
10:53 am 10:53 Cloudy 20 -6.7 8 -13.3 60 60 NNE 16 26 30.50 1033 10 16 0.00 0.00
11:53 am 11:53 Mostly Sunny 22 -5.6 9 -12.8 57 57 NNE 15 24 30.51 1033 10 16 0.00 0.00
12:53 pm 12:53 Mostly Cloudy 24 -4.4 9 -12.8 52 52 NNE 15 24 30.50 1033 10 16 0.00 0.00
1:53 pm 13:53 Sunny 24 -4.4 11 -11.7 57 57 NNE 15 24 30.50 1033 10 16 0.00 0.00
2:53 pm 14:53 Mostly Cloudy 24 -4.4 11 -11.7 57 57 N 14 22 30.51 1033 10 16 0.00 0.00
3:53 pm 15:53 Mostly Sunny 22 -5.6 12 -11.1 66 66 NNE 16 26 30.53 1034 10 16 0.00 0.00
4:53 pm 16:53 Partly Cloudy 21 -6.1 12 -11.1 68 68 NNE 15 24 30.57 1035 10 16 0.00 0.00
5:53 pm 17:53 Partly Cloudy 19 -7.2 11 -11.7 71 71 N 12 19 30.60 1036 10 16 0.00 0.00
6:53 pm 18:53 Clear 18 -7.8 11 -11.7 74 74 N 9 15 30.63 1037 10 16 0.00 0.00
7:53 pm 19:53 Clear 18 -7.8 11 -11.7 74 74 NNE 14 22 30.65 1038 10 16 0.00 0.00
8:53 pm 20:53 Clear 17 -8.3 10 -12.2 74 74 N 10 17 30.68 1039 10 16 0.00 0.00
9:53 pm 21:53 Clear 15 -9.4 10 -12.2 80 80 NNE 7 11 30.68 1039 10 16 0.00 0.00
10:53 pm 22:53 Clear 14 -10 9 -12.8 80 80 N 9 15 30.69 1039 10 16 0.00 0.00
11:53 pm 23:53 Clear 14 -10 9 -12.8 80 80 N 8 13 30.69 1039 10 16 0.00 0.00

Powered by AerisWeather